Tiree, United Kingdom

11:48 AM BST on August 24, 2016 (GMT +0100)
Tiree

Weather History for EGPU - November, 2012

Change the Weather History Date:

Sunday, November 11, 2012

  Actual Average Record
Temperature  
Mean Temperature 46 °F -  
Max Temperature 47 °F 48 °F 55 °F (2011)
Min Temperature 44 °F 40 °F 32 °F (1996)
Degree Days  
Heating Degree Days 20    
Moisture  
Dew Point 38 °F    
Average Humidity 74    
Maximum Humidity 87    
Minimum Humidity 52    
Precipitation  
Precipitation 0.00 in 0.16 in - ()
Sea Level Pressure  
Sea Level Pressure 29.79 in    
Wind  
Wind Speed 12 mph ()    
Max Wind Speed 22 mph    
Max Gust Speed -    
Visibility 7.0 miles    
Events Rain    
Averages and records for this station are not official NWS values.
T = Trace of Precipitation, MM = Missing Value Source: Averaged Metar Reports

Daily Weather History Graph

Daily Weather History Graph

Search for Another Location

Airport or City:

Trip Planner

Search our weather history database for the weather conditions in past years. The results will help you decide how hot, cold, wet, or windy it might be!

Date:

Astronomy

Nov. 11, 2012 Rise Set
Actual Time 7:58 AM GMT 4:23 PM GMT
Civil Twilight 7:16 AM GMT 5:05 PM GMT
Nautical Twilight 6:30 AM GMT 5:51 PM GMT
Astronomical Twilight 5:46 AM GMT 6:35 PM GMT
Moon 4:29 AM GMT (11/11) 3:00 PM GMT (11/11)
Length of Visible Light 9h 49m
Length of Day
8h 25m
Waning Crescent, 8% of the Moon is Illuminated
Nov 11
Waning Crescent
Nov 13
New
Nov 20
First Quarter
Nov 28
Full
Dec 6
Last Quarter

Hourly Weather History & Observations

Time (GMT) Temp. Windchill Dew Point Humidity Pressure Visibility Wind Dir Wind Speed Gust Speed Precip Events Conditions
12:20 AM 46.4 °F 39.8 °F 39.2 °F 76% 29.53 in 6.2 mi NNW 16.1 mph - N/A   Unknown
12:50 AM 46.4 °F 40.1 °F 39.2 °F 76% 29.53 in 6.2 mi NNW 15.0 mph - N/A   Partly Cloudy
1:20 AM 46.4 °F 39.5 °F 39.2 °F 76% 29.56 in 6.2 mi NNW 17.3 mph - N/A   Partly Cloudy
1:50 AM 46.4 °F 39.0 °F 39.2 °F 76% 29.56 in 6.2 mi NNW 19.6 mph - N/A   Unknown
2:20 AM 46.4 °F 39.0 °F 39.2 °F 76% 29.59 in 6.2 mi NNW 19.6 mph - N/A   Unknown
2:50 AM 46 °F - 40 °F 72% 29.63 in 19 mi North 20.7 mph - -   Scattered Clouds
2:50 AM 46.4 °F 38.7 °F 39.2 °F 76% 29.62 in 6.2 mi North 20.7 mph - N/A   Partly Cloudy
3:20 AM 46.4 °F 38.5 °F 39.2 °F 76% 29.65 in 6.2 mi North 21.9 mph - N/A   Partly Cloudy
3:50 AM 46.4 °F 38.7 °F 39.2 °F 76% 29.65 in 6.2 mi NNW 20.7 mph - N/A   Unknown
4:20 AM 44.6 °F 36.4 °F 37.4 °F 76% 29.65 in 6.2 mi North 20.7 mph - N/A   Partly Cloudy
4:50 AM 44.6 °F 36.4 °F 39.2 °F 81% 29.65 in 6.2 mi North 20.7 mph - N/A   Partly Cloudy
5:20 AM 44.6 °F 37.4 °F 37.4 °F 76% 29.68 in 6.2 mi North 16.1 mph - N/A   Partly Cloudy
5:50 AM 44.6 °F 36.9 °F 35.6 °F 71% 29.71 in 6.2 mi North 18.4 mph - N/A   Unknown
6:20 AM 44.6 °F 36.9 °F 37.4 °F 76% 29.71 in 6.2 mi North 18.4 mph - N/A   Partly Cloudy
6:50 AM 44.6 °F 37.8 °F 35.6 °F 71% 29.74 in 6.2 mi North 15.0 mph - N/A   Unknown
7:20 AM 44.6 °F 38.1 °F 35.6 °F 71% 29.74 in 6.2 mi North 13.8 mph - N/A   Partly Cloudy
7:50 AM 44.6 °F 38.4 °F 37.4 °F 76% 29.77 in 6.2 mi North 12.7 mph - N/A   Unknown
8:20 AM 44.6 °F 38.4 °F 35.6 °F 71% 29.80 in 6.2 mi NNW 12.7 mph - N/A   Unknown
8:50 AM 46 °F - 36 °F 57% 29.80 in 16 mi North 10.4 mph - -   Scattered Clouds
8:50 AM 46.4 °F 41.5 °F 35.6 °F 66% 29.80 in 6.2 mi North 10.4 mph - N/A   Mostly Cloudy
9:20 AM 46.4 °F 41.1 °F 35.6 °F 66% 29.80 in 6.2 mi North 11.5 mph - N/A   Unknown
9:50 AM 46.4 °F 41.9 °F 35.6 °F 66% 29.80 in 6.2 mi NNW 9.2 mph - N/A   Partly Cloudy
10:20 AM 46.4 °F 42.4 °F 35.6 °F 66% 29.83 in 6.2 mi NW 8.1 mph - N/A   Unknown
10:50 AM 46.4 °F 41.9 °F 37.4 °F 71% 29.83 in 6.2 mi NNW 9.2 mph - N/A   Scattered Clouds
11:20 AM 48.2 °F - 35.6 °F 62% 29.83 in 6.2 mi NW 8.1 mph - N/A   Unknown
11:50 AM 47 °F - 35 °F 52% 29.85 in 17 mi NW 8.1 mph - -   Mostly Cloudy
11:50 AM 48.2 °F - 35.6 °F 62% 29.83 in 6.2 mi NW 8.1 mph - N/A   Unknown
12:20 PM 46.4 °F 43.5 °F 35.6 °F 66% 29.83 in 6.2 mi NW 5.8 mph - N/A   Unknown
12:50 PM 46.4 °F 44.3 °F 37.4 °F 71% 29.86 in 6.2 mi NW 4.6 mph - N/A   Unknown
1:20 PM 46.4 °F 45.2 °F 37.4 °F 71% 29.86 in 6.2 mi WNW 3.5 mph - N/A   Unknown
1:50 PM 46.4 °F 44.3 °F 37.4 °F 71% 29.86 in 6.2 mi West 4.6 mph - N/A   Partly Cloudy
2:20 PM 46.4 °F 44.3 °F 37.4 °F 71% 29.86 in 6.2 mi West 4.6 mph - N/A   Mostly Cloudy
2:50 PM 45 °F - 37 °F 65% 29.86 in 12 mi West 4.6 mph - -   Scattered Clouds
2:50 PM 44.6 °F 42.2 °F 37.4 °F 76% 29.86 in 6.2 mi West 4.6 mph - N/A   Partly Cloudy
3:20 PM 44.6 °F 43.1 °F 37.4 °F 76% 29.86 in 6.2 mi West 3.5 mph - N/A   Scattered Clouds
3:50 PM 44.6 °F - 37.4 °F 76% 29.86 in 6.2 mi West 2.3 mph - N/A   Mostly Cloudy
4:20 PM 44.6 °F - 37.4 °F 76% 29.86 in 6.2 mi SW 2.3 mph - N/A   Unknown
4:50 PM 44.6 °F - 37.4 °F 76% 29.86 in 5.6 mi South 2.3 mph - N/A   Scattered Clouds
5:20 PM 44.6 °F 42.2 °F 37.4 °F 76% 29.86 in 6.2 mi SSW 4.6 mph - N/A Rain Light Rain
5:50 PM 44 °F - 38 °F 71% 29.88 in 12 mi SW 6.9 mph - - Rain Rain
5:50 PM 44.6 °F 40.7 °F 37.4 °F 76% 29.86 in 6.2 mi SW 6.9 mph - N/A   Mostly Cloudy
6:20 PM 46.4 °F 42.9 °F 37.4 °F 71% 29.86 in 6.2 mi SSW 6.9 mph - N/A   Mostly Cloudy
6:50 PM 44.6 °F 38.8 °F 41.0 °F 87% 29.86 in 6.2 mi SSW 11.5 mph - N/A   Partly Cloudy
7:20 PM 46.4 °F 41.5 °F 41.0 °F 81% 29.89 in 6.2 mi South 10.4 mph - N/A   Scattered Clouds
7:50 PM 44.6 °F 39.7 °F 41.0 °F 87% 29.89 in 6.2 mi South 9.2 mph - N/A   Unknown
8:20 PM 46.4 °F 41.5 °F 41.0 °F 81% 29.89 in 6.2 mi South 10.4 mph - N/A   Unknown
8:50 PM 46 °F - 40 °F 74% 29.89 in 28 mi South 9.2 mph - -   Scattered Clouds
8:50 PM 46.4 °F 41.9 °F 41.0 °F 81% 29.89 in 6.2 mi South 9.2 mph - N/A   Unknown
9:20 PM 46.4 °F 42.4 °F 41.0 °F 81% 29.89 in 6.2 mi SSW 8.1 mph - N/A   Unknown
9:50 PM 46.4 °F 42.4 °F 41.0 °F 81% 29.89 in 6.2 mi SSW 8.1 mph - N/A   Unknown
10:20 PM 46.4 °F 41.5 °F 42.8 °F 87% 29.89 in 6.2 mi SW 10.4 mph - N/A   Scattered Clouds
10:50 PM 44.6 °F 41.4 °F 41.0 °F 87% 29.89 in 6.2 mi SW 5.8 mph - N/A   Partly Cloudy
11:20 PM 44.6 °F 41.4 °F 41.0 °F 87% 29.86 in 6.2 mi SSW 5.8 mph - N/A   Unknown
11:50 PM 46 °F - 42 °F 79% 29.87 in 25 mi South 10.4 mph - -   Scattered Clouds
11:50 PM 46.4 °F 41.5 °F 41.0 °F 81% 29.86 in 6.2 mi South 10.4 mph - N/A   Partly Cloudy